Location: Coupvray
(48.8929°N, 2.7967°E)
Time: 04:33:28
(UTC+00:00)

Cosmos 1271 Rocket - Pass Details

Date: 14 July 2020
Orbit: 497 x 546 km, 81.2° (Epoch: 06 August)

Event Time Altitude Azimuth Distance (km) Brightness Sun altitude
Rises 02:39:36 0° 353° (N) 2,633 7.0 -10.5°
Reaches altitude 10° 02:41:50 10° 0° (N) 1,734 6.2 -10.3°
Maximum altitude 02:45:28 43° 73° (ENE) 718 3.9 -9.9°
Drops below altitude 10° 02:49:03 10° 147° (SSE) 1,703 5.2 -9.5°
Sets 02:51:13 0° 154° (SSE) 2,578 6.0 -9.3°
